Location: Chippewa Lake
(41.0698°N, 81.9010°W)
Time: 02:11:27
(UTC+00:00)

SJ-6B - Pass Details

Date: 09 May 2021
Orbit: 509 x 581 km, 97.6° (Epoch: 24 June)

Event Time Altitude Azimuth Distance (km) Brightness Sun altitude
Exits shadow 01:34:29 - 178° (S) 2,390 5.7 -11.0°
Reaches altitude 10° 01:35:59 10° 182° (S) 1,773 5.1 -11.3°
Maximum altitude 01:39:43 53° 260° (W) 668 3.5 -11.8°
Drops below altitude 10° 01:43:36 10° 338° (NNW) 1,829 6.4 -12.4°
Sets 01:45:48 0° 343° (NNW) 2,741 7.3 -12.8°
